• In Germany
  • List of Countries
  • For 7 days
  • Water Temperature
  • Satellite Maps
  • Weather Map
  • Weather Widgets
  • user-avatar
    Login

    Hourly Weather Mendoza

    Today, 23 July, Sunday

    Time Temperature Precipitation Wind Pressure Humidity
    00:00 +13°C° 0 mm 4 mps 694 mmHg 21%
    01:00 +13°C° 0 mm 4 mps 694 mmHg 22%
    02:00 +12°C° 0 mm 4 mps 694 mmHg 25%
    03:00 +12°C° 0 mm 4 mps 694 mmHg 27%
    04:00 +12°C° 0 mm 4 mps 694 mmHg 29%
    05:00 +12°C° 0 mm 4 mps 694 mmHg 31%
    06:00 +11°C° 0 mm 4 mps 695 mmHg 32%
    07:00 +11°C° 0 mm 4 mps 695 mmHg 33%
    08:00 +12°C° 0 mm 5 mps 696 mmHg 33%
    09:00 +14°C° 0 mm 6 mps 696 mmHg 33%
    10:00 +15°C° 0 mm 7 mps 697 mmHg 32%
    11:00 +15°C° 0 mm 7 mps 697 mmHg 34%
    12:00 +15°C° 0 mm 7 mps 696 mmHg 36%
    13:00 +15°C° 0 mm 7 mps 696 mmHg 38%
    14:00 +15°C° 0 mm 6 mps 696 mmHg 39%
    15:00 +14°C° 0 mm 6 mps 696 mmHg 40%
    16:00 +14°C° 0 mm 5 mps 696 mmHg 41%
    17:00 +12°C° 0 mm 5 mps 697 mmHg 44%
    18:00 +10°C° 0 mm 5 mps 697 mmHg 47%
    19:00 +10°C° 0 mm 4 mps 698 mmHg 50%
    20:00 +8°C° 0 mm 4 mps 698 mmHg 50%
    21:00 +8°C° 0 mm 4 mps 699 mmHg 50%
    22:00 +7°C° 0 mm 4 mps 699 mmHg 50%
    23:00 +7°C° 0 mm 4 mps 699 mmHg 49%

    Tomorrow, 24 July, Monday

    Time Temperature Precipitation Wind Pressure Humidity
    00:00 +6°C° 0 mm 4 mps 699 mmHg 49%
    01:00 +6°C° 0 mm 4 mps 699 mmHg 49%
    02:00 +6°C° 0 mm 4 mps 698 mmHg 50%
    03:00 +5°C° 0 mm 3 mps 698 mmHg 51%
    04:00 +5°C° 0 mm 3 mps 698 mmHg 52%
    05:00 +5°C° 0 mm 3 mps 698 mmHg 53%
    06:00 +5°C° 0 mm 3 mps 699 mmHg 53%
    07:00 +5°C° 0 mm 3 mps 699 mmHg 54%
    08:00 +8°C° 0 mm 3 mps 699 mmHg 48%
    09:00 +10°C° 0 mm 3 mps 700 mmHg 43%
    10:00 +12°C° 0 mm 3 mps 700 mmHg 37%
    11:00 +13°C° 0 mm 3 mps 699 mmHg 35%
    12:00 +14°C° 0 mm 3 mps 699 mmHg 34%
    13:00 +16°C° 0 mm 3 mps 698 mmHg 32%
    14:00 +14°C° 0 mm 3 mps 699 mmHg 33%
    15:00 +14°C° 0 mm 3 mps 699 mmHg 34%
    16:00 +14°C° 0 mm 3 mps 699 mmHg 35%
    17:00 +13°C° 0 mm 3 mps 699 mmHg 38%
    18:00 +12°C° 0 mm 3 mps 700 mmHg 40%
    19:00 +11°C° 0 mm 3 mps 700 mmHg 43%
    20:00 +10°C° 0 mm 3 mps 700 mmHg 45%
    21:00 +10°C° 0 mm 3 mps 700 mmHg 48%
    22:00 +9°C° 0 mm 3 mps 700 mmHg 50%
    23:00 +9°C° 0 mm 3 mps 700 mmHg 52%

    Day after tomorrow, 25 July, Tuesday

    Time Temperature Precipitation Wind Pressure Humidity
    00:00 +9°C° 0 mm 3 mps 700 mmHg 55%
    01:00 +8°C° 0 mm 3 mps 700 mmHg 57%
    02:00 +8°C° 0 mm 3 mps 699 mmHg 60%
    03:00 +8°C° 0 mm 3 mps 699 mmHg 63%
    04:00 +7°C° 0 mm 3 mps 699 mmHg 65%
    05:00 +7°C° 0 mm 3 mps 699 mmHg 66%
    06:00 +7°C° 0 mm 3 mps 699 mmHg 66%
    07:00 +7°C° 0 mm 3 mps 699 mmHg 67%
    08:00 +9°C° 0 mm 3 mps 699 mmHg 62%
    09:00 +10°C° 0 mm 3 mps 699 mmHg 58%
    10:00 +12°C° 0 mm 3 mps 699 mmHg 54%
    11:00 +13°C° 0 mm 3 mps 699 mmHg 52%
    12:00 +14°C° 0 mm 3 mps 698 mmHg 49%
    13:00 +16°C° 0 mm 3 mps 697 mmHg 47%
    14:00 +16°C° 0 mm 3 mps 697 mmHg 47%
    15:00 +14°C° 0 mm 3 mps 698 mmHg 47%
    16:00 +15°C° 0 mm 2 mps 698 mmHg 47%
    17:00 +14°C° 0 mm 2 mps 698 mmHg 51%
    18:00 +13°C° 0 mm 2 mps 699 mmHg 55%
    19:00 +12°C° 0 mm 2 mps 699 mmHg 58%
    20:00 +12°C° 0 mm 2 mps 699 mmHg 58%
    21:00 +10°C° 0 mm 2 mps 699 mmHg 58%
    22:00 +10°C° 0 mm 2 mps 699 mmHg 58%
    23:00 +10°C° 0 mm 2 mps 699 mmHg 57%

    26 July, Wednesday

    Time Temperature Precipitation Wind Pressure Humidity
    00:00 +10°C° 0 mm 2 mps 699 mmHg 56%
    01:00 +9°C° 0 mm 2 mps 699 mmHg 55%
    02:00 +9°C° 0 mm 2 mps 699 mmHg 56%
    03:00 +9°C° 0 mm 2 mps 698 mmHg 57%
    04:00 +9°C° 0 mm 2 mps 698 mmHg 58%
    05:00 +8°C° 0 mm 2 mps 698 mmHg 58%
    06:00 +8°C° 0 mm 2 mps 698 mmHg 58%
    07:00 +8°C° 0 mm 2 mps 699 mmHg 58%
    08:00 +10°C° 0 mm 2 mps 699 mmHg 53%
    09:00 +13°C° 0 mm 2 mps 699 mmHg 49%
    10:00 +15°C° 0 mm 2 mps 699 mmHg 44%
    11:00 +16°C° 0 mm 2 mps 698 mmHg 42%
    12:00 +18°C° 0 mm 2 mps 698 mmHg 39%
    13:00 +19°C° 0 mm 2 mps 697 mmHg 36%
    14:00 +19°C° 0 mm 2 mps 697 mmHg 37%
    15:00 +18°C° 0 mm 2 mps 697 mmHg 37%
    16:00 +18°C° 0 mm 2 mps 697 mmHg 38%
    17:00 +17°C° 0 mm 2 mps 697 mmHg 41%
    18:00 +16°C° 0 mm 2 mps 697 mmHg 44%
    19:00 +14°C° 0 mm 2 mps 697 mmHg 48%
    20:00 +14°C° 0 mm 2 mps 697 mmHg 48%
    21:00 +14°C° 0 mm 2 mps 697 mmHg 48%
    22:00 +14°C° 0 mm 2 mps 697 mmHg 48%
    23:00 +13°C° 0 mm 2 mps 696 mmHg 49%

    27 July, Thursday

    Time Temperature Precipitation Wind Pressure Humidity
    00:00 +13°C° 0 mm 2 mps 696 mmHg 49%
    01:00 +12°C° 0 mm 3 mps 696 mmHg 49%
    02:00 +12°C° 0 mm 3 mps 696 mmHg 50%
    03:00 +12°C° 0 mm 3 mps 695 mmHg 50%
    04:00 +11°C° 0 mm 3 mps 695 mmHg 51%
    05:00 +11°C° 0 mm 3 mps 695 mmHg 52%
    06:00 +11°C° 0 mm 3 mps 696 mmHg 52%
    07:00 +11°C° 0 mm 3 mps 696 mmHg 53%
    08:00 +14°C° 0 mm 3 mps 696 mmHg 50%
    09:00 +17°C° 0 mm 3 mps 696 mmHg 47%
    10:00 +19°C° 0 mm 2 mps 696 mmHg 44%
    11:00 +20°C° 0 mm 3 mps 696 mmHg 39%
    12:00 +21°C° 0 mm 3 mps 695 mmHg 35%
    13:00 +22°C° 0 mm 3 mps 695 mmHg 31%
    14:00 +23°C° 0 mm 2 mps 695 mmHg 30%
    15:00 +23°C° 0 mm 2 mps 695 mmHg 30%
    16:00 +23°C° 0 mm 2 mps 695 mmHg 30%
    17:00 +20°C° 0 mm 2 mps 695 mmHg 31%
    18:00 +19°C° 0 mm 3 mps 695 mmHg 33%
    19:00 +17°C° 0 mm 3 mps 696 mmHg 34%
    20:00 +17°C° 0 mm 3 mps 696 mmHg 33%
    21:00 +17°C° 0 mm 3 mps 696 mmHg 31%
    22:00 +15°C° 0 mm 4 mps 696 mmHg 29%
    23:00 +15°C° 0 mm 4 mps 696 mmHg 32%

    28 July, Friday

    Time Temperature Precipitation Wind Pressure Humidity
    00:00 +15°C° 0 mm 4 mps 696 mmHg 34%
    01:00 +14°C° 0 mm 4 mps 696 mmHg 37%
    02:00 +14°C° 0 mm 4 mps 696 mmHg 38%
    03:00 +13°C° 0 mm 4 mps 696 mmHg 39%
    04:00 +13°C° 0 mm 4 mps 696 mmHg 40%
    05:00 +13°C° 0 mm 3 mps 696 mmHg 41%
    06:00 +13°C° 0 mm 3 mps 697 mmHg 41%
    07:00 +12°C° 0 mm 3 mps 697 mmHg 42%
    08:00 +14°C° 0 mm 4 mps 697 mmHg 41%
    09:00 +17°C° 0 mm 4 mps 698 mmHg 40%
    10:00 +19°C° 0 mm 4 mps 698 mmHg 40%
    11:00 +20°C° 0 mm 5 mps 698 mmHg 43%
    12:00 +20°C° 0 mm 5 mps 698 mmHg 45%
    13:00 +21°C° 0 mm 5 mps 698 mmHg 48%
    14:00 +20°C° 0 mm 5 mps 698 mmHg 55%
    15:00 +19°C° 0 mm 5 mps 698 mmHg 61%
    16:00 +17°C° 0 mm 5 mps 698 mmHg 67%
    17:00 +16°C° 0.1 mm 5 mps 699 mmHg 70%
    18:00 +15°C° 0.1 mm 5 mps 700 mmHg 73%
    19:00 +14°C° 0.1 mm 5 mps 700 mmHg 76%
    20:00 +14°C° 0.1 mm 5 mps 701 mmHg 73%
    21:00 +13°C° 0.1 mm 5 mps 701 mmHg 69%
    22:00 +13°C° 0.1 mm 5 mps 701 mmHg 66%
    23:00 +12°C° 0 mm 5 mps 701 mmHg 64%
    Show more